Location: Piotrkow Trybunalski
(51.4000°N, 19.6830°E)
Time: 01:22:38
(UTC+02:00)

STRAND 1 - Pass Details

Date: 31 March 2023
Orbit: 767 x 779 km, 98.4° (Epoch: 06 June)

Event Time Altitude Azimuth Distance (km) Brightness Sun altitude
Rises 21:06:29 0° 7° (N) 3,255 ? -17.5°
Reaches altitude 10° 21:09:11 10° 353° (N) 2,322 ? -17.9°
Maximum altitude 21:13:10 24° 302° (WNW) 1,572 ? -18.4°
Drops below altitude 10° 21:17:08 10° 250° (WSW) 2,309 ? -18.9°
Sets 21:19:49 0° 237° (WSW) 3,231 ? -19.3°
